Location: Newark
(46.9000°N, 28.3500°E)
Time: 03:06:34
(UTC+00:00)

Vanguard 1 Rocket - Pass Details

Date: 27 August 2019
Orbit: 650 x 4226 km, 34.3° (Epoch: 23 October)

Event Time Altitude Azimuth Distance (km) Brightness Sun altitude
Rises 04:14:06 0° 252° (WSW) 3,372 9.7 8.4°
Reaches altitude 10° 04:17:39 10° 225° (SW) 2,797 9.5 9.0°
Maximum altitude 04:20:53 14° 196° (SSW) 2,889 9.8 9.5°
Drops below altitude 10° 04:24:57 10° 168° (SSE) 3,694 10.7 10.2°
Sets 04:31:15 0° 148° (SSE) 5,502 11.8 11.3°
